Time,TemperatureF,DewpointF,PressureIn,WindDirection,WindDirectionDegrees,WindSpeedMPH,WindSpeedGustMPH,Humidity,HourlyPrecipIn,Conditions,Clouds,dailyrainin,SoftwareType,DateUTC
2013-04-16 00:03:00,51.4,48.3,29.90,North,355,12.7,12.7,89,0.00,RA,,0.00,WeatherDisplay:10.37,2013-04-16 05:03:00,
2013-04-16 00:08:00,50.9,47.8,29.90,North,360,11.5,11.5,89,0.00,RA,,0.00,WeatherDisplay:10.37,2013-04-16 05:08:00,
2013-04-16 00:13:00,50.5,47.4,29.89,NNE,23,15.0,15.0,89,0.00,RA,,0.00,WeatherDisplay:10.37,2013-04-16 05:13:00,
2013-04-16 00:18:00,50.4,47.3,29.88,NNE,20,11.5,11.5,89,0.00,CLR,,0.00,WeatherDisplay:10.37,2013-04-16 05:18:00,
2013-04-16 00:23:00,50.2,47.1,29.88,NNE,24,17.3,17.3,89,0.00,CLR,,0.00,WeatherDisplay:10.37,2013-04-16 05:23:00,
2013-04-16 00:28:00,50.2,47.1,29.89,NNE,29,10.4,10.4,89,0.00,CLR,,0.00,WeatherDisplay:10.37,2013-04-16 05:28:00,
2013-04-16 00:33:00,50.1,47.0,29.88,NE,34,10.0,10.0,89,0.00,CLR,,0.00,WeatherDisplay:10.37,2013-04-16 05:33:00,
2013-04-16 00:38:00,50.1,47.0,29.88,NE,42,15.0,15.0,89,0.00,CLR,,0.00,WeatherDisplay:10.37,2013-04-16 05:38:00,
2013-04-16 00:44:00,50.1,47.0,29.88,ENE,63,9.2,9.2,89,0.00,CLR,,0.00,WeatherDisplay:10.37,2013-04-16 05:44:00,
2013-04-16 00:49:00,50.0,46.9,29.88,NNE,21,5.8,5.8,89,0.00,CLR,,0.00,WeatherDisplay:10.37,2013-04-16 05:49:00,
2013-04-16 00:54:00,50.0,47.2,29.89,NE,35,8.1,8.1,90,0.00,CLR,,0.00,WeatherDisplay:10.37,2013-04-16 05:54:00,
2013-04-16 00:59:00,49.9,46.8,29.89,NNE,28,10.4,10.4,89,0.00,CLR,,0.00,WeatherDisplay:10.37,2013-04-16 05:59:00,
2013-04-16 01:04:00,49.9,46.8,29.89,NNE,30,11.0,11.0,89,0.00,CLR,,0.00,WeatherDisplay:10.37,2013-04-16 06:04:00,
2013-04-16 01:09:00,49.9,46.8,29.89,NNE,33,11.5,11.5,89,0.00,CLR,,0.00,WeatherDisplay:10.37,2013-04-16 06:09:00,
2013-04-16 01:14:00,50.0,47.2,29.89,NNE,27,6.9,6.9,90,0.00,CLR,,0.00,WeatherDisplay:10.37,2013-04-16 06:14:00,
2013-04-16 01:20:00,50.0,47.2,29.87,NE,55,12.7,12.7,90,0.00,CLR,,0.00,WeatherDisplay:10.37,2013-04-16 06:20:00,
2013-04-16 01:25:00,50.0,47.2,29.88,ENE,75,0.0,0.0,90,0.00,CLR,,0.00,WeatherDisplay:10.37,2013-04-16 06:25:00,
2013-04-16 01:30:00,50.1,47.3,29.88,NE,51,8.1,8.1,90,0.00,CLR,,0.00,WeatherDisplay:10.37,2013-04-16 06:30:00,
2013-04-16 01:35:00,50.1,47.3,29.87,NE,52,10.4,10.4,90,0.00,CLR,,0.00,WeatherDisplay:10.37,2013-04-16 06:35:00,
2013-04-16 01:41:00,50.2,47.4,29.86,ENE,59,1.2,0.0,90,0.00,CLR,,0.00,WeatherDisplay:10.37,2013-04-16 06:41:00,
2013-04-16 01:46:00,50.3,47.5,29.89,NNE,32,5.8,5.8,90,0.00,CLR,,0.00,WeatherDisplay:10.37,2013-04-16 06:46:00,
2013-04-16 01:51:00,50.3,47.5,29.88,ENE,71,5.8,5.8,90,0.00,CLR,,0.00,WeatherDisplay:10.37,2013-04-16 06:51:00,
2013-04-16 01:56:00,50.3,47.5,29.88,ENE,61,10.4,10.4,90,0.00,CLR,,0.00,WeatherDisplay:10.37,2013-04-16 06:56:00,
2013-04-16 02:00:00,50.3,47.5,29.90,NNE,23,11.5,11.5,90,0.00,CLR,,0.00,WeatherDisplay:10.37,2013-04-16 07:00:00,
2013-04-16 02:02:00,50.3,47.5,29.90,NNE,23,11.5,11.5,90,0.00,CLR,,0.00,WeatherDisplay:10.37,2013-04-16 07:02:00,
2013-04-16 02:07:00,50.3,47.5,29.90,NNE,23,11.5,11.5,90,0.00,CLR,,0.00,WeatherDisplay:10.37,2013-04-16 07:07:00,
2013-04-16 02:12:00,50.3,47.5,29.92,NNW,341,10.0,10.0,90,0.00,CLR,,0.01,WeatherDisplay:10.37,2013-04-16 07:12:00,
2013-04-16 02:17:00,50.1,47.3,29.91,North,360,11.5,11.5,90,0.01,RA,,0.01,WeatherDisplay:10.37,2013-04-16 07:17:00,
2013-04-16 02:19:00,49.9,47.1,29.92,NNW,336,11.5,11.5,90,0.02,RA,,0.02,WeatherDisplay:10.37,2013-04-16 07:19:00,
2013-04-16 02:22:00,49.9,47.1,29.92,NNW,336,11.5,11.5,90,0.02,RA,,0.02,WeatherDisplay:10.37,2013-04-16 07:22:00,
2013-04-16 02:27:00,49.9,47.1,29.92,NNW,336,11.5,11.5,90,0.02,RA,,0.02,WeatherDisplay:10.37,2013-04-16 07:27:00,
2013-04-16 02:32:00,49.6,46.8,29.94,NNW,343,11.5,11.5,90,0.14,RA,,0.14,WeatherDisplay:10.37,2013-04-16 07:32:00,
2013-04-16 02:37:00,49.4,46.6,29.94,NNW,341,11.5,11.5,90,0.15,RA,,0.15,WeatherDisplay:10.37,2013-04-16 07:37:00,
2013-04-16 02:39:00,49.2,46.4,29.94,NNE,14,9.2,9.2,90,0.15,RA,,0.16,WeatherDisplay:10.37,2013-04-16 07:39:00,
2013-04-16 02:43:00,49.2,46.4,29.94,NNE,14,9.2,9.2,90,0.15,RA,,0.16,WeatherDisplay:10.37,2013-04-16 07:43:00,
2013-04-16 02:48:00,49.2,46.4,29.94,NNE,14,9.2,9.2,90,0.15,RA,,0.16,WeatherDisplay:10.37,2013-04-16 07:48:00,
2013-04-16 02:53:00,48.6,45.8,29.92,NNE,24,11.5,11.5,90,0.33,RA,,0.33,WeatherDisplay:10.37,2013-04-16 07:53:00,
2013-04-16 02:58:00,48.3,45.5,29.93,ENE,58,8.1,8.1,90,0.34,RA,,0.35,WeatherDisplay:10.37,2013-04-16 07:58:00,
2013-04-16 03:03:00,48.3,45.5,29.94,NNE,33,6.9,6.9,90,0.35,RA,,0.35,WeatherDisplay:10.37,2013-04-16 08:03:00,
2013-04-16 03:08:00,48.3,45.5,29.94,NNE,33,6.9,6.9,90,0.35,RA,,0.35,WeatherDisplay:10.37,2013-04-16 08:08:00,
2013-04-16 03:13:00,48.2,45.7,29.93,NNE,32,6.9,6.9,91,0.36,RA,,0.36,WeatherDisplay:10.37,2013-04-16 08:13:00,
2013-04-16 03:18:00,48.2,45.7,29.94,NNE,18,6.9,6.9,91,0.36,RA,,0.36,WeatherDisplay:10.37,2013-04-16 08:18:00,
2013-04-16 03:23:00,48.2,45.7,29.94,NNE,30,0.0,0.0,91,0.36,,,0.36,WeatherDisplay:10.37,2013-04-16 08:23:00,
2013-04-16 03:29:00,48.1,45.6,29.94,NE,40,3.5,3.5,91,0.37,RA,,0.37,WeatherDisplay:10.37,2013-04-16 08:29:00,
2013-04-16 03:34:00,48.0,45.5,29.93,East,79,0.0,0.0,91,0.38,RA,,0.38,WeatherDisplay:10.37,2013-04-16 08:34:00,
2013-04-16 03:39:00,48.0,45.5,29.92,NNE,21,6.0,6.0,91,0.38,RA,,0.38,WeatherDisplay:10.37,2013-04-16 08:39:00,
2013-04-16 03:44:00,47.9,45.4,29.94,ENE,57,1.2,1.2,91,0.37,CLR,,0.38,WeatherDisplay:10.37,2013-04-16 08:44:00,
2013-04-16 03:49:00,48.1,45.6,29.95,NNE,29,4.6,4.6,91,0.25,RA,,0.39,WeatherDisplay:10.37,2013-04-16 08:49:00,
2013-04-16 03:55:00,48.1,45.6,29.97,NNW,340,0.0,0.0,91,0.25,RA,,0.40,WeatherDisplay:10.37,2013-04-16 08:55:00,
2013-04-16 04:00:00,48.2,45.7,29.96,NNW,347,0.0,0.0,91,0.08,RA,,0.41,WeatherDisplay:10.37,2013-04-16 09:00:00,
2013-04-16 04:05:00,48.1,45.6,29.96,North,355,0.0,0.0,91,0.08,RA,,0.41,WeatherDisplay:10.37,2013-04-16 09:05:00,
2013-04-16 04:10:00,48.0,45.5,29.97,NNE,20,6.9,6.9,91,0.08,RA,,0.42,WeatherDisplay:10.37,2013-04-16 09:10:00,
2013-04-16 04:15:00,48.1,45.6,29.97,NNE,19,5.8,5.8,91,0.11,RA,,0.45,WeatherDisplay:10.37,2013-04-16 09:15:00,
2013-04-16 04:20:00,48.1,45.6,29.97,NNE,18,0.0,0.0,91,0.11,RA,,0.47,WeatherDisplay:10.37,2013-04-16 09:20:00,
2013-04-16 04:25:00,48.1,45.6,29.97,NNE,18,0.0,0.0,91,0.11,RA,,0.47,WeatherDisplay:10.37,2013-04-16 09:25:00,
2013-04-16 04:30:00,48.1,45.6,29.97,NNE,20,0.0,0.0,91,0.12,RA,,0.49,WeatherDisplay:10.37,2013-04-16 09:30:00,
2013-04-16 04:36:00,48.1,45.6,29.97,NNE,29,0.0,0.0,91,0.14,RA,,0.50,WeatherDisplay:10.37,2013-04-16 09:36:00,
2013-04-16 04:41:00,48.1,45.6,29.97,NNE,13,0.0,0.0,91,0.15,RA,,0.51,WeatherDisplay:10.37,2013-04-16 09:41:00,
2013-04-16 04:46:00,48.1,45.6,29.97,NNE,18,0.0,0.0,91,0.15,RA,,0.53,WeatherDisplay:10.37,2013-04-16 09:46:00,
2013-04-16 04:51:00,48.1,45.6,29.97,ENE,59,0.0,0.0,91,0.16,RA,,0.54,WeatherDisplay:10.37,2013-04-16 09:51:00,
2013-04-16 04:56:00,48.0,45.5,29.97,NE,36,0.0,0.0,91,0.18,RA,,0.56,WeatherDisplay:10.37,2013-04-16 09:56:00,
2013-04-16 05:02:00,48.0,45.5,29.96,East,79,0.0,0.0,91,0.19,RA,,0.58,WeatherDisplay:10.37,2013-04-16 10:02:00,
2013-04-16 05:07:00,47.9,45.4,29.97,North,11,0.0,0.0,91,0.19,RA,,0.58,WeatherDisplay:10.37,2013-04-16 10:07:00,
2013-04-16 05:12:00,47.9,45.4,29.98,NNE,25,0.0,0.0,91,0.20,RA,,0.59,WeatherDisplay:10.37,2013-04-16 10:12:00,
2013-04-16 05:17:00,48.0,45.5,29.97,North,355,0.0,0.0,91,0.22,RA,,0.62,WeatherDisplay:10.37,2013-04-16 10:17:00,
2013-04-16 05:22:00,47.9,45.4,29.96,NNE,30,0.0,0.0,91,0.23,RA,,0.64,WeatherDisplay:10.37,2013-04-16 10:22:00,
2013-04-16 05:28:00,47.9,45.7,29.98,NNE,19,0.0,0.0,92,0.20,RA,,0.65,WeatherDisplay:10.37,2013-04-16 10:28:00,
2013-04-16 05:33:00,47.9,45.7,29.98,NE,45,0.0,0.0,92,0.18,RA,,0.65,WeatherDisplay:10.37,2013-04-16 10:33:00,
2013-04-16 05:38:00,47.9,45.7,29.97,NNE,30,0.0,0.0,92,0.17,RA,,0.66,WeatherDisplay:10.37,2013-04-16 10:38:00,
2013-04-16 05:43:00,47.8,45.6,30.00,NNE,13,0.0,0.0,92,0.18,RA,,0.68,WeatherDisplay:10.37,2013-04-16 10:43:00,
2013-04-16 05:49:00,47.9,45.7,30.00,NNE,13,0.0,0.0,92,0.17,RA,,0.69,WeatherDisplay:10.37,2013-04-16 10:49:00,
2013-04-16 05:54:00,47.9,45.7,29.99,NNE,28,0.0,0.0,92,0.16,RA,,0.70,WeatherDisplay:10.37,2013-04-16 10:54:00,
2013-04-16 05:59:00,48.0,45.8,30.00,NNE,26,0.0,0.0,92,0.16,RA,,0.70,WeatherDisplay:10.37,2013-04-16 10:59:00,
2013-04-16 06:00:00,47.9,45.7,30.01,NNE,26,0.0,0.0,92,0.15,RA,,0.70,WeatherDisplay:10.37,2013-04-16 11:00:00,
2013-04-16 06:04:00,47.9,45.7,30.01,NNE,26,0.0,0.0,92,0.15,RA,,0.70,WeatherDisplay:10.37,2013-04-16 11:04:00,
2013-04-16 06:09:00,47.9,45.7,30.01,NNE,26,0.0,0.0,92,0.15,RA,,0.70,WeatherDisplay:10.37,2013-04-16 11:09:00,
2013-04-16 06:14:00,48.1,45.9,30.03,North,360,0.0,0.0,92,0.15,RA,,0.71,WeatherDisplay:10.37,2013-04-16 11:14:00,
2013-04-16 06:19:00,48.0,45.8,30.04,North,360,0.0,0.0,92,0.14,RA,,0.72,WeatherDisplay:10.37,2013-04-16 11:19:00,
2013-04-16 06:25:00,48.0,45.8,30.04,North,360,0.0,0.0,92,0.14,RA,,0.72,WeatherDisplay:10.37,2013-04-16 11:25:00,
2013-04-16 06:42:00,48.0,45.8,30.05,North,360,0.0,0.0,92,0.16,RA,,0.74,WeatherDisplay:10.37,2013-04-16 11:42:00,
2013-04-16 06:47:00,47.9,45.7,30.05,NW,311,0.0,0.0,92,0.17,RA,,0.80,WeatherDisplay:10.37,2013-04-16 11:47:00,
2013-04-16 06:52:00,47.8,45.6,30.05,NW,311,0.0,0.0,92,0.17,RA,,0.81,WeatherDisplay:10.37,2013-04-16 11:52:00,
2013-04-16 06:57:00,47.8,45.6,30.05,NW,311,0.0,0.0,92,0.17,RA,,0.81,WeatherDisplay:10.37,2013-04-16 11:57:00,
2013-04-16 07:00:00,47.7,45.5,30.07,NW,324,1.0,1.0,92,0.17,RA,,0.85,WeatherDisplay:10.37,2013-04-16 12:00:00,
2013-04-16 07:02:00,47.7,45.5,30.07,NW,324,1.0,1.0,92,0.17,RA,,0.85,WeatherDisplay:10.37,2013-04-16 12:02:00,
2013-04-16 07:07:00,47.7,45.5,30.07,NW,324,1.0,1.0,92,0.17,RA,,0.85,WeatherDisplay:10.37,2013-04-16 12:07:00,
2013-04-16 07:13:00,47.4,45.2,30.05,North,11,2.3,2.3,92,0.22,RA,,0.86,WeatherDisplay:10.37,2013-04-16 12:13:00,
2013-04-16 07:18:00,47.2,45.0,30.05,NE,39,3.5,3.5,92,0.21,RA,,0.86,WeatherDisplay:10.37,2013-04-16 12:18:00,
2013-04-16 07:19:00,47.2,45.0,30.05,NNE,12,2.0,2.0,92,0.21,RA,,0.86,WeatherDisplay:10.37,2013-04-16 12:19:00,
2013-04-16 07:23:00,47.2,45.0,30.05,NNE,12,2.0,2.0,92,0.21,RA,,0.86,WeatherDisplay:10.37,2013-04-16 12:23:00,
2013-04-16 07:28:00,47.2,45.0,30.05,NNE,12,2.0,2.0,92,0.21,RA,,0.86,WeatherDisplay:10.37,2013-04-16 12:28:00,
2013-04-16 07:33:00,47.2,45.0,30.04,NNE,24,5.8,5.8,92,0.21,,,0.86,WeatherDisplay:10.37,2013-04-16 12:33:00,
2013-04-16 07:38:00,47.2,45.0,30.04,NNW,328,10.0,10.0,92,0.19,CLR,,0.86,WeatherDisplay:10.37,2013-04-16 12:38:00,
2013-04-16 07:39:00,47.2,45.0,30.04,NNE,16,10.4,10.4,92,0.19,CLR,,0.86,WeatherDisplay:10.37,2013-04-16 12:39:00,
2013-04-16 07:43:00,47.2,45.0,30.04,NNE,16,10.4,10.4,92,0.19,CLR,,0.86,WeatherDisplay:10.37,2013-04-16 12:43:00,
2013-04-16 07:49:00,47.2,45.0,30.04,NNE,16,10.4,10.4,92,0.19,CLR,,0.86,WeatherDisplay:10.37,2013-04-16 12:49:00,
2013-04-16 07:50:00,47.2,45.0,30.04,North,355,12.7,12.7,92,0.19,CLR,,0.86,WeatherDisplay:10.37,2013-04-16 12:50:00,
2013-04-16 07:54:00,47.2,45.0,30.04,North,355,12.7,12.7,92,0.19,CLR,,0.86,WeatherDisplay:10.37,2013-04-16 12:54:00,
2013-04-16 07:59:00,47.2,45.0,30.04,North,355,12.7,12.7,92,0.19,CLR,,0.86,WeatherDisplay:10.37,2013-04-16 12:59:00,
2013-04-16 08:00:00,47.2,45.0,30.04,NNE,19,11.5,11.5,92,0.18,CLR,,0.86,WeatherDisplay:10.37,2013-04-16 13:00:00,
2013-04-16 08:04:00,47.2,45.0,30.04,NNE,19,11.5,11.5,92,0.18,CLR,,0.86,WeatherDisplay:10.37,2013-04-16 13:04:00,
2013-04-16 08:09:00,47.2,45.0,30.04,NNE,19,11.5,11.5,92,0.18,CLR,,0.86,WeatherDisplay:10.37,2013-04-16 13:09:00,
2013-04-16 08:14:00,47.1,44.9,30.05,NNE,33,6.9,6.9,92,0.18,CLR,,0.86,WeatherDisplay:10.37,2013-04-16 13:14:00,
2013-04-16 08:19:00,46.9,44.7,30.05,NE,44,11.5,11.5,92,0.17,CLR,,0.86,WeatherDisplay:10.37,2013-04-16 13:19:00,
2013-04-16 08:20:00,46.9,44.7,30.05,NNE,26,11.5,11.5,92,0.17,CLR,,0.86,WeatherDisplay:10.37,2013-04-16 13:20:00,
2013-04-16 08:25:00,46.9,44.7,30.05,NE,44,11.5,11.5,92,0.17,CLR,,0.86,WeatherDisplay:10.37,2013-04-16 13:25:00,
2013-04-16 08:30:00,46.9,44.7,30.05,NNE,26,11.5,11.5,92,0.17,CLR,,0.86,WeatherDisplay:10.37,2013-04-16 13:30:00,
2013-04-16 08:36:00,46.4,44.2,30.05,NNE,16,10.4,10.4,92,0.16,CLR,,0.86,WeatherDisplay:10.37,2013-04-16 13:36:00,
2013-04-16 08:39:00,46.4,44.2,30.05,NNE,28,11.5,11.5,92,0.16,CLR,,0.86,WeatherDisplay:10.37,2013-04-16 13:39:00,
2013-04-16 08:41:00,46.4,44.2,30.05,NNE,28,11.5,11.5,92,0.16,CLR,,0.86,WeatherDisplay:10.37,2013-04-16 13:41:00,
2013-04-16 08:46:00,46.4,44.2,30.05,NNE,28,11.5,11.5,92,0.16,CLR,,0.86,WeatherDisplay:10.37,2013-04-16 13:46:00,
2013-04-16 08:51:00,46.3,44.1,30.06,NNE,13,10.4,10.4,92,0.16,CLR,,0.86,WeatherDisplay:10.37,2013-04-16 13:51:00,
2013-04-16 08:56:00,46.4,44.2,30.06,NNE,17,0.0,0.0,92,0.14,CLR,,0.86,WeatherDisplay:10.37,2013-04-16 13:56:00,
2013-04-16 09:00:00,46.4,44.2,30.06,NNE,13,0.0,0.0,92,0.14,CLR,,0.86,WeatherDisplay:10.37,2013-04-16 14:00:00,
2013-04-16 09:01:00,46.4,44.2,30.06,NNE,13,0.0,0.0,92,0.14,CLR,,0.86,WeatherDisplay:10.37,2013-04-16 14:01:00,
2013-04-16 09:06:00,46.4,44.2,30.06,NNE,13,0.0,0.0,92,0.14,CLR,,0.86,WeatherDisplay:10.37,2013-04-16 14:06:00,
2013-04-16 09:11:00,47.0,44.8,30.07,North,355,0.0,0.0,92,0.08,CLR,,0.86,WeatherDisplay:10.37,2013-04-16 14:11:00,
2013-04-16 09:17:00,46.9,44.7,30.07,NNE,19,3.5,3.5,92,0.06,CLR,,0.86,WeatherDisplay:10.37,2013-04-16 14:17:00,
2013-04-16 09:19:00,47.0,44.8,30.08,North,355,3.5,3.5,92,0.05,CLR,,0.86,WeatherDisplay:10.37,2013-04-16 14:19:00,
2013-04-16 09:22:00,47.0,44.8,30.08,North,355,3.5,3.5,92,0.05,CLR,,0.86,WeatherDisplay:10.37,2013-04-16 14:22:00,
2013-04-16 09:27:00,47.0,44.8,30.08,North,355,3.5,3.5,92,0.05,CLR,,0.86,WeatherDisplay:10.37,2013-04-16 14:27:00,
2013-04-16 09:42:00,47.3,44.8,30.09,NNE,17,7.0,7.0,91,0.00,CLR,,0.86,WeatherDisplay:10.37,2013-04-16 14:42:00,
2013-04-16 09:47:00,47.5,44.7,30.09,NE,49,5.8,5.8,90,0.00,CLR,,0.86,WeatherDisplay:10.37,2013-04-16 14:47:00,
2013-04-16 09:49:00,47.7,44.9,30.09,NNE,24,1.2,1.2,90,0.00,CLR,,0.86,WeatherDisplay:10.37,2013-04-16 14:49:00,
2013-04-16 09:52:00,47.7,44.9,30.09,NNE,24,1.2,1.2,90,0.00,CLR,,0.86,WeatherDisplay:10.37,2013-04-16 14:52:00,
2013-04-16 09:57:00,47.7,44.9,30.09,NNE,24,1.2,1.2,90,0.00,CLR,,0.86,WeatherDisplay:10.37,2013-04-16 14:57:00,
2013-04-16 10:00:00,48.4,45.3,30.09,North,10,4.6,4.6,89,0.00,CLR,,0.86,WeatherDisplay:10.37,2013-04-16 15:00:00,
2013-04-16 10:02:00,48.4,45.3,30.09,North,10,4.6,4.6,89,0.00,CLR,,0.86,WeatherDisplay:10.37,2013-04-16 15:02:00,
2013-04-16 10:08:00,48.4,45.3,30.09,North,10,4.6,4.6,89,0.00,CLR,,0.86,WeatherDisplay:10.37,2013-04-16 15:08:00,
2013-04-16 10:13:00,48.9,45.2,30.09,ENE,57,1.2,0.0,87,0.00,CLR,,0.86,WeatherDisplay:10.37,2013-04-16 15:13:00,
2013-04-16 10:18:00,49.1,45.1,30.09,East,84,0.0,0.0,86,0.00,CLR,,0.86,WeatherDisplay:10.37,2013-04-16 15:18:00,
2013-04-16 10:19:00,49.2,45.2,30.08,East,87,0.0,0.0,86,0.00,CLR,,0.86,WeatherDisplay:10.37,2013-04-16 15:19:00,
2013-04-16 10:23:00,49.2,45.2,30.08,East,87,0.0,0.0,86,0.00,CLR,,0.86,WeatherDisplay:10.37,2013-04-16 15:23:00,
2013-04-16 10:29:00,49.2,45.2,30.08,East,87,0.0,0.0,86,0.00,CLR,,0.86,WeatherDisplay:10.37,2013-04-16 15:29:00,
2013-04-16 10:34:00,49.9,45.6,30.08,East,86,4.6,4.6,85,0.00,CLR,,0.86,WeatherDisplay:10.37,2013-04-16 15:34:00,
2013-04-16 10:39:00,50.4,45.7,30.08,East,99,6.0,6.0,84,0.00,CLR,,0.86,WeatherDisplay:10.37,2013-04-16 15:39:00,
2013-04-16 10:44:00,50.4,45.7,30.08,ESE,103,5.8,5.8,84,0.00,CLR,,0.86,WeatherDisplay:10.37,2013-04-16 15:44:00,
2013-04-16 10:49:00,50.4,45.4,30.09,ENE,74,1.2,0.0,83,0.00,CLR,,0.86,WeatherDisplay:10.37,2013-04-16 15:49:00,
2013-04-16 10:55:00,50.5,45.5,30.09,ENE,74,1.2,0.0,83,0.00,CLR,,0.86,WeatherDisplay:10.37,2013-04-16 15:55:00,
2013-04-16 11:00:00,50.9,45.9,30.09,ENE,60,0.0,0.0,83,0.00,CLR,,0.86,WeatherDisplay:10.37,2013-04-16 16:00:00,
2013-04-16 11:06:00,50.9,45.9,30.09,NNE,25,0.0,0.0,83,0.00,CLR,,0.86,WeatherDisplay:10.37,2013-04-16 16:06:00,
2013-04-16 11:12:00,51.2,46.2,30.08,NNE,32,0.0,0.0,83,0.00,CLR,,0.86,WeatherDisplay:10.37,2013-04-16 16:12:00,
2013-04-16 11:17:00,51.1,46.1,30.11,NNE,15,0.0,0.0,83,0.00,CLR,,0.86,WeatherDisplay:10.37,2013-04-16 16:17:00,
2013-04-16 11:22:00,51.0,46.0,30.12,North,355,3.5,3.5,83,0.00,CLR,,0.86,WeatherDisplay:10.37,2013-04-16 16:22:00,
2013-04-16 11:27:00,50.9,45.9,30.14,NNW,340,5.0,5.0,83,0.00,CLR,,0.86,WeatherDisplay:10.37,2013-04-16 16:27:00,
2013-04-16 11:33:00,50.8,45.8,30.14,NNW,342,11.5,11.5,83,0.00,CLR,,0.86,WeatherDisplay:10.37,2013-04-16 16:33:00,
2013-04-16 11:38:00,50.7,45.7,30.12,North,355,2.3,0.0,83,0.01,RA,,0.87,WeatherDisplay:10.37,2013-04-16 16:38:00,
2013-04-16 11:43:00,50.5,45.8,30.08,East,88,4.6,4.6,84,0.04,RA,,0.90,WeatherDisplay:10.37,2013-04-16 16:43:00,
2013-04-16 11:48:00,50.1,45.8,30.09,ENE,66,0.0,0.0,85,0.04,RA,,0.90,WeatherDisplay:10.37,2013-04-16 16:48:00,
2013-04-16 11:53:00,49.9,45.6,30.08,East,80,0.0,0.0,85,0.04,CLR,,0.90,WeatherDisplay:10.37,2013-04-16 16:53:00,
2013-04-16 11:59:00,49.8,45.8,30.07,ENE,64,0.0,0.0,86,0.04,CLR,,0.90,WeatherDisplay:10.37,2013-04-16 16:59:00,
2013-04-16 12:04:00,49.7,45.7,30.07,East,92,0.0,0.0,86,0.05,RA,,0.91,WeatherDisplay:10.37,2013-04-16 17:04:00,
2013-04-16 12:09:00,49.7,46.0,30.07,East,80,0.0,0.0,87,0.05,RA,,0.91,WeatherDisplay:10.37,2013-04-16 17:09:00,
2013-04-16 12:14:00,49.7,46.0,30.08,East,84,0.0,0.0,87,0.05,,,0.91,WeatherDisplay:10.37,2013-04-16 17:14:00,
2013-04-16 12:19:00,49.8,46.4,30.10,North,349,0.0,0.0,88,0.05,CLR,,0.91,WeatherDisplay:10.37,2013-04-16 17:19:00,
2013-04-16 12:24:00,49.8,46.4,30.10,NNE,19,0.0,0.0,88,0.05,CLR,,0.91,WeatherDisplay:10.37,2013-04-16 17:24:00,
2013-04-16 12:29:00,49.8,46.4,30.11,North,11,0.0,0.0,88,0.10,RA,,0.96,WeatherDisplay:10.37,2013-04-16 17:29:00,
2013-04-16 12:34:00,49.6,46.2,30.10,NE,42,0.0,0.0,88,0.12,RA,,0.98,WeatherDisplay:10.37,2013-04-16 17:34:00,
2013-04-16 12:40:00,49.5,46.1,30.09,NE,43,0.0,0.0,88,0.12,RA,,1.01,WeatherDisplay:10.37,2013-04-16 17:40:00,
2013-04-16 12:45:00,49.2,46.1,30.10,NE,45,0.0,0.0,89,0.12,RA,,1.02,WeatherDisplay:10.37,2013-04-16 17:45:00,
2013-04-16 12:50:00,49.3,46.2,30.06,NNE,29,0.0,0.0,89,0.14,RA,,1.04,WeatherDisplay:10.37,2013-04-16 17:50:00,
2013-04-16 12:55:00,49.2,46.1,30.08,NE,52,0.0,0.0,89,0.14,RA,,1.04,WeatherDisplay:10.37,2013-04-16 17:55:00,
2013-04-16 13:00:00,49.2,46.1,30.08,NE,35,0.0,0.0,89,0.15,RA,,1.05,WeatherDisplay:10.37,2013-04-16 18:00:00,
2013-04-16 13:05:00,49.1,46.0,30.09,NNE,17,0.0,0.0,89,0.14,RA,,1.05,WeatherDisplay:10.37,2013-04-16 18:05:00,
2013-04-16 13:11:00,49.2,46.4,30.11,NNW,327,0.0,0.0,90,0.14,CLR,,1.05,WeatherDisplay:10.37,2013-04-16 18:11:00,
2013-04-16 13:16:00,49.1,46.3,30.12,NW,309,3.5,3.5,90,0.15,RA,,1.06,WeatherDisplay:10.37,2013-04-16 18:16:00,
2013-04-16 13:21:00,48.9,46.1,30.11,NNW,348,1.2,0.0,90,0.15,RA,,1.06,WeatherDisplay:10.37,2013-04-16 18:21:00,
2013-04-16 13:26:00,48.5,45.7,30.10,North,355,2.3,2.3,90,0.14,RA,,1.07,WeatherDisplay:10.37,2013-04-16 18:26:00,
2013-04-16 13:32:00,48.3,45.5,30.11,North,350,0.0,0.0,90,0.11,RA,,1.08,WeatherDisplay:10.37,2013-04-16 18:32:00,
2013-04-16 13:37:00,48.0,45.2,30.10,NE,36,4.0,4.0,90,0.10,RA,,1.09,WeatherDisplay:10.37,2013-04-16 18:37:00,
2013-04-16 13:42:00,47.7,44.9,30.08,NNE,16,12.7,12.7,90,0.10,RA,,1.12,WeatherDisplay:10.37,2013-04-16 18:42:00,
2013-04-16 13:47:00,47.4,44.6,30.08,North,11,4.0,4.0,90,0.10,RA,,1.13,WeatherDisplay:10.37,2013-04-16 18:47:00,
2013-04-16 13:52:00,47.3,44.8,30.09,North,360,2.3,2.3,91,0.10,RA,,1.14,WeatherDisplay:10.37,2013-04-16 18:52:00,
2013-04-16 13:57:00,47.4,44.9,30.11,NE,37,0.0,0.0,91,0.12,RA,,1.16,WeatherDisplay:10.37,2013-04-16 18:57:00,
2013-04-16 14:03:00,47.4,44.9,30.12,North,360,0.0,0.0,91,0.11,RA,,1.16,WeatherDisplay:10.37,2013-04-16 19:03:00,
2013-04-16 14:08:00,47.4,44.9,30.11,NNE,21,0.0,0.0,91,0.13,RA,,1.18,WeatherDisplay:10.37,2013-04-16 19:08:00,
2013-04-16 14:13:00,47.3,44.8,30.09,ENE,77,1.2,1.2,91,0.15,RA,,1.21,WeatherDisplay:10.37,2013-04-16 19:13:00,
2013-04-16 14:18:00,47.1,44.6,30.07,East,82,4.6,4.6,91,0.18,RA,,1.24,WeatherDisplay:10.37,2013-04-16 19:18:00,
2013-04-16 14:23:00,47.1,44.6,30.07,ENE,74,0.0,0.0,91,0.20,RA,,1.26,WeatherDisplay:10.37,2013-04-16 19:23:00,
2013-04-16 14:28:00,47.1,44.6,30.06,ENE,58,0.0,0.0,91,0.20,RA,,1.27,WeatherDisplay:10.37,2013-04-16 19:28:00,
2013-04-16 14:33:00,47.2,44.7,30.08,NNE,18,10.4,10.4,91,0.20,RA,,1.28,WeatherDisplay:10.37,2013-04-16 19:33:00,
2013-04-16 14:39:00,47.4,44.9,30.09,North,355,4.6,4.6,91,0.18,RA,,1.28,WeatherDisplay:10.37,2013-04-16 19:39:00,
2013-04-16 14:44:00,47.4,44.9,30.09,NNE,19,6.9,6.9,91,0.16,CLR,,1.28,WeatherDisplay:10.37,2013-04-16 19:44:00,
2013-04-16 14:49:00,47.4,45.2,30.11,North,349,0.0,0.0,92,0.15,CLR,,1.28,WeatherDisplay:10.37,2013-04-16 19:49:00,
2013-04-16 14:54:00,47.5,45.3,30.11,North,360,0.0,0.0,92,0.13,CLR,,1.28,WeatherDisplay:10.37,2013-04-16 19:54:00,
2013-04-16 14:59:00,47.7,45.5,30.11,NNE,20,0.0,0.0,92,0.12,CLR,,1.28,WeatherDisplay:10.37,2013-04-16 19:59:00,
2013-04-16 15:05:00,47.6,45.4,30.09,NNE,14,0.0,0.0,92,0.12,RA,,1.29,WeatherDisplay:10.37,2013-04-16 20:05:00,
2013-04-16 15:10:00,47.5,45.0,30.11,NNE,32,0.0,0.0,91,0.10,RA,,1.29,WeatherDisplay:10.37,2013-04-16 20:10:00,
2013-04-16 15:15:00,47.4,44.9,30.11,North,10,0.0,0.0,91,0.07,,,1.29,WeatherDisplay:10.37,2013-04-16 20:15:00,
2013-04-16 15:20:00,47.4,44.9,30.11,NNE,31,0.0,0.0,91,0.05,CLR,,1.29,WeatherDisplay:10.37,2013-04-16 20:20:00,
2013-04-16 15:25:00,47.5,45.3,30.09,ENE,62,0.0,0.0,92,0.03,CLR,,1.29,WeatherDisplay:10.37,2013-04-16 20:25:00,
2013-04-16 15:31:00,47.6,45.4,30.10,ENE,63,0.0,0.0,92,0.02,CLR,,1.29,WeatherDisplay:10.37,2013-04-16 20:31:00,
2013-04-16 15:36:00,47.7,45.5,30.09,NNE,22,5.0,5.0,92,0.01,CLR,,1.29,WeatherDisplay:10.37,2013-04-16 20:36:00,
2013-04-16 15:41:00,47.8,45.6,30.10,ENE,63,0.0,0.0,92,0.01,CLR,,1.29,WeatherDisplay:10.37,2013-04-16 20:41:00,
2013-04-16 15:46:00,47.8,45.6,30.10,NE,34,6.0,6.0,92,0.01,CLR,,1.29,WeatherDisplay:10.37,2013-04-16 20:46:00,
2013-04-16 15:52:00,47.8,45.6,30.10,ENE,69,0.0,0.0,92,0.01,CLR,,1.29,WeatherDisplay:10.37,2013-04-16 20:52:00,
2013-04-16 15:57:00,47.9,45.7,30.10,ENE,63,0.0,0.0,92,0.01,CLR,,1.29,WeatherDisplay:10.37,2013-04-16 20:57:00,
2013-04-16 16:02:00,48.1,45.9,30.09,NNE,29,0.0,0.0,92,0.01,CLR,,1.29,WeatherDisplay:10.37,2013-04-16 21:02:00,
2013-04-16 16:07:00,48.3,46.1,30.11,NE,36,0.0,0.0,92,0.00,CLR,,1.29,WeatherDisplay:10.37,2013-04-16 21:07:00,
2013-04-16 16:12:00,48.4,46.2,30.11,NE,42,0.0,0.0,92,0.00,CLR,,1.29,WeatherDisplay:10.37,2013-04-16 21:12:00,
2013-04-16 16:18:00,48.7,46.5,30.11,NNE,27,0.0,0.0,92,0.00,CLR,,1.29,WeatherDisplay:10.37,2013-04-16 21:18:00,
2013-04-16 16:19:00,48.8,46.6,30.12,East,91,0.0,0.0,92,0.00,CLR,,1.29,WeatherDisplay:10.37,2013-04-16 21:19:00,
2013-04-16 16:23:00,48.8,46.6,30.12,East,91,0.0,0.0,92,0.00,CLR,,1.29,WeatherDisplay:10.37,2013-04-16 21:23:00,
2013-04-16 16:28:00,48.8,46.6,30.12,East,91,0.0,0.0,92,0.00,CLR,,1.29,WeatherDisplay:10.37,2013-04-16 21:28:00,
2013-04-16 16:33:00,48.8,46.6,30.13,East,98,0.0,0.0,92,0.00,CLR,,1.29,WeatherDisplay:10.37,2013-04-16 21:33:00,
2013-04-16 16:38:00,48.8,46.6,30.11,ENE,61,0.0,0.0,92,0.00,CLR,,1.29,WeatherDisplay:10.37,2013-04-16 21:38:00,
2013-04-16 16:39:00,48.8,46.3,30.11,ENE,63,0.0,0.0,91,0.00,CLR,,1.29,WeatherDisplay:10.37,2013-04-16 21:39:00,
2013-04-16 16:43:00,48.8,46.3,30.11,ENE,63,0.0,0.0,91,0.00,CLR,,1.29,WeatherDisplay:10.37,2013-04-16 21:43:00,
2013-04-16 16:48:00,48.8,46.3,30.11,ENE,63,0.0,0.0,91,0.00,CLR,,1.29,WeatherDisplay:10.37,2013-04-16 21:48:00,
2013-04-16 16:49:00,48.8,46.3,30.11,ENE,78,0.0,0.0,91,0.00,CLR,,1.29,WeatherDisplay:10.37,2013-04-16 21:49:00,
2013-04-16 16:53:00,48.8,46.3,30.11,ENE,78,0.0,0.0,91,0.00,CLR,,1.29,WeatherDisplay:10.37,2013-04-16 21:53:00,
2013-04-16 16:59:00,48.8,46.3,30.11,ENE,78,0.0,0.0,91,0.00,CLR,,1.29,WeatherDisplay:10.37,2013-04-16 21:59:00,
2013-04-16 17:04:00,48.8,46.3,30.12,NNE,24,5.8,5.8,91,0.01,RA,,1.30,WeatherDisplay:10.37,2013-04-16 22:04:00,
2013-04-16 17:09:00,48.8,46.3,30.13,NE,48,0.0,0.0,91,0.01,RA,,1.30,WeatherDisplay:10.37,2013-04-16 22:09:00,
2013-04-16 17:14:00,48.7,46.2,30.13,ENE,63,4.6,4.6,91,0.01,,,1.30,WeatherDisplay:10.37,2013-04-16 22:14:00,
2013-04-16 17:19:00,48.6,46.1,30.13,ENE,67,0.0,0.0,91,0.01,CLR,,1.30,WeatherDisplay:10.37,2013-04-16 22:19:00,
2013-04-16 17:24:00,48.7,46.2,30.12,ENE,76,0.0,0.0,91,0.01,CLR,,1.30,WeatherDisplay:10.37,2013-04-16 22:24:00,
2013-04-16 17:30:00,48.7,45.9,30.11,ENE,64,1.2,1.2,90,0.01,CLR,,1.30,WeatherDisplay:10.37,2013-04-16 22:30:00,
2013-04-16 17:35:00,48.7,45.9,30.11,NE,38,3.5,0.0,90,0.01,CLR,,1.30,WeatherDisplay:10.37,2013-04-16 22:35:00,
2013-04-16 17:40:00,49.0,46.2,30.12,NNE,31,2.3,2.3,90,0.01,CLR,,1.30,WeatherDisplay:10.37,2013-04-16 22:40:00,
2013-04-16 17:45:00,49.2,46.4,30.12,ENE,71,10.4,10.4,90,0.01,CLR,,1.30,WeatherDisplay:10.37,2013-04-16 22:45:00,
2013-04-16 17:50:00,49.2,46.4,30.11,ENE,60,6.9,6.9,90,0.01,CLR,,1.30,WeatherDisplay:10.37,2013-04-16 22:50:00,
2013-04-16 17:55:00,49.2,46.4,30.11,NE,56,1.2,1.2,90,0.01,CLR,,1.30,WeatherDisplay:10.37,2013-04-16 22:55:00,
2013-04-16 18:01:00,49.2,46.4,30.11,ENE,75,0.0,0.0,90,0.01,CLR,,1.30,WeatherDisplay:10.37,2013-04-16 23:01:00,
2013-04-16 18:06:00,49.2,46.4,30.11,East,89,0.0,0.0,90,0.01,CLR,,1.30,WeatherDisplay:10.37,2013-04-16 23:06:00,
2013-04-16 18:11:00,49.2,46.1,30.11,East,82,0.0,0.0,89,0.00,CLR,,1.30,WeatherDisplay:10.37,2013-04-16 23:11:00,
2013-04-16 18:16:00,49.2,46.1,30.11,East,82,0.0,0.0,89,0.00,CLR,,1.30,WeatherDisplay:10.37,2013-04-16 23:16:00,
2013-04-16 18:19:00,49.4,46.3,30.09,NE,53,0.0,0.0,89,0.00,CLR,,1.30,WeatherDisplay:10.37,2013-04-16 23:19:00,
2013-04-16 18:21:00,49.4,46.3,30.09,NE,53,0.0,0.0,89,0.00,CLR,,1.30,WeatherDisplay:10.37,2013-04-16 23:21:00,
2013-04-16 18:27:00,49.4,46.3,30.09,NE,53,0.0,0.0,89,0.00,CLR,,1.30,WeatherDisplay:10.37,2013-04-16 23:27:00,
2013-04-16 18:32:00,49.3,46.2,30.11,NNE,29,6.0,6.0,89,0.00,CLR,,1.30,WeatherDisplay:10.37,2013-04-16 23:32:00,
2013-04-16 18:37:00,49.4,46.0,30.10,ENE,68,5.8,5.8,88,0.00,CLR,,1.30,WeatherDisplay:10.37,2013-04-16 23:37:00,
2013-04-16 18:42:00,49.4,46.0,30.10,NE,53,5.8,5.8,88,0.00,CLR,,1.30,WeatherDisplay:10.37,2013-04-16 23:42:00,
2013-04-16 18:47:00,49.5,46.1,30.11,NNE,23,0.0,0.0,88,0.00,CLR,,1.30,WeatherDisplay:10.37,2013-04-16 23:47:00,
2013-04-16 18:52:00,49.5,46.1,30.10,ENE,68,5.8,5.8,88,0.00,CLR,,1.30,WeatherDisplay:10.37,2013-04-16 23:52:00,
2013-04-16 18:57:00,49.5,46.1,30.10,ENE,76,6.9,6.9,88,0.00,CLR,,1.30,WeatherDisplay:10.37,2013-04-16 23:57:00,
2013-04-16 19:02:00,49.5,46.1,30.11,NE,56,0.0,0.0,88,0.00,CLR,,1.30,WeatherDisplay:10.37,2013-04-17 00:02:00,
2013-04-16 19:07:00,49.5,45.8,30.11,ENE,78,10.4,10.4,87,0.00,CLR,,1.30,WeatherDisplay:10.37,2013-04-17 00:07:00,
2013-04-16 19:12:00,49.5,45.5,30.11,ENE,57,5.8,5.8,86,0.00,CLR,,1.30,WeatherDisplay:10.37,2013-04-17 00:12:00,
2013-04-16 19:17:00,49.6,45.6,30.10,NE,37,0.0,0.0,86,0.00,CLR,,1.30,WeatherDisplay:10.37,2013-04-17 00:17:00,
2013-04-16 19:22:00,49.6,45.3,30.11,NE,40,0.0,0.0,85,0.00,CLR,,1.30,WeatherDisplay:10.37,2013-04-17 00:22:00,
2013-04-16 19:28:00,49.7,45.4,30.11,NE,40,0.0,0.0,85,0.00,CLR,,1.30,WeatherDisplay:10.37,2013-04-17 00:28:00,
2013-04-16 19:33:00,49.6,45.0,30.11,NE,38,0.0,0.0,84,0.00,CLR,,1.30,WeatherDisplay:10.37,2013-04-17 00:33:00,
2013-04-16 19:38:00,49.4,44.5,30.11,ENE,69,0.0,0.0,83,0.00,CLR,,1.30,WeatherDisplay:10.37,2013-04-17 00:38:00,
2013-04-16 19:43:00,49.4,44.1,30.12,ENE,74,0.0,0.0,82,0.00,CLR,,1.30,WeatherDisplay:10.37,2013-04-17 00:43:00,
2013-04-16 19:48:00,49.4,43.8,30.11,ENE,76,0.0,0.0,81,0.00,CLR,,1.30,WeatherDisplay:10.37,2013-04-17 00:48:00,
2013-04-16 19:54:00,49.4,43.5,30.11,East,90,7.0,7.0,80,0.00,CLR,,1.30,WeatherDisplay:10.37,2013-04-17 00:54:00,
2013-04-16 19:59:00,49.3,43.4,30.12,East,80,0.0,0.0,80,0.00,CLR,,1.30,WeatherDisplay:10.37,2013-04-17 00:59:00,
2013-04-16 20:04:00,49.3,43.1,30.13,ENE,66,3.5,0.0,79,0.00,CLR,,1.30,WeatherDisplay:10.37,2013-04-17 01:04:00,
2013-04-16 20:09:00,49.3,43.1,30.14,NE,47,0.0,0.0,79,0.00,CLR,,1.30,WeatherDisplay:10.37,2013-04-17 01:09:00,
2013-04-16 20:14:00,49.3,43.1,30.14,NNE,22,0.0,0.0,79,0.00,CLR,,1.30,WeatherDisplay:10.37,2013-04-17 01:14:00,
2013-04-16 20:19:00,49.2,43.0,30.14,NE,55,0.0,0.0,79,0.00,CLR,,1.30,WeatherDisplay:10.37,2013-04-17 01:19:00,
2013-04-16 20:24:00,49.2,43.3,30.13,NE,47,0.0,0.0,80,0.00,CLR,,1.30,WeatherDisplay:10.37,2013-04-17 01:24:00,
2013-04-16 20:30:00,49.2,43.3,30.14,ENE,58,0.0,0.0,80,0.00,CLR,,1.30,WeatherDisplay:10.37,2013-04-17 01:30:00,
2013-04-16 20:35:00,49.1,43.2,30.15,NNE,14,0.0,0.0,80,0.00,CLR,,1.30,WeatherDisplay:10.37,2013-04-17 01:35:00,
2013-04-16 20:40:00,49.1,43.2,30.15,NNE,32,1.2,1.2,80,0.00,CLR,,1.30,WeatherDisplay:10.37,2013-04-17 01:40:00,
2013-04-16 20:45:00,49.1,43.2,30.14,ENE,63,0.0,0.0,80,0.00,CLR,,1.30,WeatherDisplay:10.37,2013-04-17 01:45:00,
2013-04-16 20:50:00,49.0,43.1,30.15,ENE,70,0.0,0.0,80,0.00,CLR,,1.30,WeatherDisplay:10.37,2013-04-17 01:50:00,
2013-04-16 20:55:00,49.0,43.1,30.15,NE,44,0.0,0.0,80,0.00,CLR,,1.30,WeatherDisplay:10.37,2013-04-17 01:55:00,
2013-04-16 21:00:00,48.9,43.0,30.15,ENE,64,0.0,0.0,80,0.00,CLR,,1.30,WeatherDisplay:10.37,2013-04-17 02:00:00,
2013-04-16 21:05:00,48.8,42.9,30.15,NE,55,0.0,0.0,80,0.00,CLR,,1.30,WeatherDisplay:10.37,2013-04-17 02:05:00,
2013-04-16 21:10:00,48.8,42.9,30.16,NNE,19,0.0,0.0,80,0.00,CLR,,1.30,WeatherDisplay:10.37,2013-04-17 02:10:00,
2013-04-16 21:15:00,48.8,42.9,30.15,NE,55,0.0,0.0,80,0.00,CLR,,1.30,WeatherDisplay:10.37,2013-04-17 02:15:00,
2013-04-16 21:20:00,48.6,42.4,30.15,NE,36,0.0,0.0,79,0.00,CLR,,1.31,WeatherDisplay:10.37,2013-04-17 02:20:00,
2013-04-16 21:26:00,48.4,42.2,30.16,NNE,32,3.5,0.0,79,0.01,RA,,1.32,WeatherDisplay:10.37,2013-04-17 02:26:00,
2013-04-16 21:31:00,48.1,41.9,30.14,ENE,72,3.5,3.5,79,0.02,RA,,1.33,WeatherDisplay:10.37,2013-04-17 02:31:00,
2013-04-16 21:36:00,47.6,41.7,30.18,North,355,3.5,3.5,80,0.08,RA,,1.38,WeatherDisplay:10.37,2013-04-17 02:36:00,
2013-04-16 21:41:00,46.9,41.4,30.17,NE,55,6.9,6.9,81,0.20,RA,,1.50,WeatherDisplay:10.37,2013-04-17 02:41:00,
2013-04-16 21:46:00,46.1,40.9,30.16,ENE,63,0.0,0.2,82,0.22,RA,,1.52,WeatherDisplay:10.37,2013-04-17 02:46:00,
2013-04-16 21:52:00,45.7,41.1,30.16,NE,44,4.6,4.6,84,0.22,RA,,1.52,WeatherDisplay:10.37,2013-04-17 02:52:00,
2013-04-16 21:57:00,45.5,41.3,30.15,East,83,0.0,0.0,85,0.22,,,1.52,WeatherDisplay:10.37,2013-04-17 02:57:00,
2013-04-16 22:02:00,45.5,41.3,30.16,NNE,28,0.0,0.0,85,0.22,CLR,,1.52,WeatherDisplay:10.37,2013-04-17 03:02:00,
2013-04-16 22:07:00,45.5,41.6,30.15,NNE,30,2.3,2.3,86,0.22,CLR,,1.52,WeatherDisplay:10.37,2013-04-17 03:07:00,
2013-04-16 22:13:00,45.6,41.7,30.15,NE,34,0.0,0.0,86,0.22,CLR,,1.52,WeatherDisplay:10.37,2013-04-17 03:13:00,
2013-04-16 22:18:00,45.6,41.7,30.16,NE,53,0.0,0.0,86,0.22,CLR,,1.52,WeatherDisplay:10.37,2013-04-17 03:18:00,
2013-04-16 22:23:00,45.6,41.7,30.16,NNE,32,0.0,0.0,86,0.22,CLR,,1.52,WeatherDisplay:10.37,2013-04-17 03:23:00,
2013-04-16 22:28:00,45.6,42.0,30.15,ENE,66,3.5,3.5,87,0.21,CLR,,1.52,WeatherDisplay:10.37,2013-04-17 03:28:00,
2013-04-16 22:33:00,45.6,42.0,30.15,ENE,64,4.6,4.6,87,0.19,CLR,,1.52,WeatherDisplay:10.37,2013-04-17 03:33:00,
2013-04-16 22:38:00,45.7,41.8,30.15,ENE,71,2.3,2.3,86,0.12,CLR,,1.52,WeatherDisplay:10.37,2013-04-17 03:38:00,
2013-04-16 22:43:00,45.8,41.9,30.15,ENE,61,0.0,0.0,86,0.01,CLR,,1.52,WeatherDisplay:10.37,2013-04-17 03:43:00,
2013-04-16 22:48:00,45.9,41.9,30.16,ENE,68,0.0,0.0,86,0.00,CLR,,1.52,WeatherDisplay:10.37,2013-04-17 03:48:00,
2013-04-16 22:53:00,45.9,41.9,30.15,ENE,63,1.2,0.0,86,0.00,CLR,,1.52,WeatherDisplay:10.37,2013-04-17 03:53:00,
2013-04-16 22:59:00,45.9,41.9,30.15,ENE,63,0.0,0.0,86,0.00,CLR,,1.52,WeatherDisplay:10.37,2013-04-17 03:59:00,
2013-04-16 23:00:00,46.0,42.0,30.15,ENE,63,0.0,0.0,86,0.00,CLR,,1.52,WeatherDisplay:10.37,2013-04-17 04:00:00,
2013-04-16 23:01:00,46.0,42.0,30.15,NE,52,0.0,0.0,86,0.00,CLR,,1.52,WeatherDisplay:10.37,2013-04-17 04:01:00,
2013-04-16 23:06:00,46.0,41.7,30.15,ENE,74,0.0,0.0,85,0.00,CLR,,1.52,WeatherDisplay:10.37,2013-04-17 04:06:00,
2013-04-16 23:11:00,46.1,41.8,30.15,NE,53,3.5,3.5,85,0.00,CLR,,1.52,WeatherDisplay:10.37,2013-04-17 04:11:00,
2013-04-16 23:16:00,46.1,41.8,30.15,NE,48,0.0,0.0,85,0.00,CLR,,1.52,WeatherDisplay:10.37,2013-04-17 04:16:00,
2013-04-16 23:22:00,46.2,41.9,30.15,NNE,19,0.0,0.0,85,0.00,CLR,,1.52,WeatherDisplay:10.37,2013-04-17 04:22:00,
2013-04-16 23:27:00,46.2,41.9,30.16,NE,49,0.0,0.0,85,0.00,CLR,,1.52,WeatherDisplay:10.37,2013-04-17 04:27:00,
2013-04-16 23:32:00,46.2,41.9,30.17,ENE,72,0.0,0.0,85,0.00,CLR,,1.52,WeatherDisplay:10.37,2013-04-17 04:32:00,
2013-04-16 23:37:00,46.2,41.6,30.17,ENE,72,0.0,0.0,84,0.00,CLR,,1.52,WeatherDisplay:10.37,2013-04-17 04:37:00,
2013-04-16 23:42:00,46.3,41.7,30.16,NE,56,0.0,0.0,84,0.00,CLR,,1.52,WeatherDisplay:10.37,2013-04-17 04:42:00,
2013-04-16 23:47:00,46.3,41.7,30.17,NE,44,4.6,0.0,84,0.01,RA,,1.54,WeatherDisplay:10.37,2013-04-17 04:47:00,
2013-04-16 23:53:00,46.1,41.5,30.16,NNE,19,4.6,0.0,84,0.03,RA,,1.56,WeatherDisplay:10.37,2013-04-17 04:53:00,
2013-04-16 23:58:00,45.9,41.3,30.15,NE,44,3.5,3.5,84,0.12,RA,,1.64,WeatherDisplay:10.37,2013-04-17 04:58:00,